CW8809 Weather Reports


time (UTC)temp
C
wind
direction
speed
KPH
gust
KPH
rain 1hr
cm
rain 24hr
cm
rain mn
cm
humidity
%
barometer
mb
20260509112033 7 292 0.0 0.0 0.00 0.00 0.00 83 1025.8
20260509111032 7 292 0.0 0.0 0.00 0.00 0.00 84 1025.7
20260509110030 7 292 0.0 0.0 0.00 0.00 0.00 84 1025.4
20260509105028 7 292 0.0 0.0 0.00 0.00 0.00 84 1025.3
20260509104026 7 292 0.0 0.0 0.00 0.00 0.00 83 1025.3
20260509102952 7 292 0.0 0.0 0.00 0.00 0.00 83 1024.9
20260509101950 7 292 0.0 0.0 0.00 0.00 0.00 83 1024.9
20260509100916 7 292 0.0 0.0 0.00 0.00 0.00 82 1024.9
20260509095914 8 292 0.0 0.0 0.00 0.00 0.00 82 1024.8
20260509094912 8 292 0.0 0.0 0.00 0.00 0.00 82 1024.4
20260509093910 8 292 0.0 0.0 0.00 0.00 0.00 81 1024.4
20260509092908 8 292 0.0 0.0 0.00 0.00 0.00 81 1024.4
20260509091834 8 292 0.0 0.0 0.00 0.00 0.00 80 1024.4
20260509090832 9 315 0.0 0.0 0.00 0.00 0.00 79 1024.4
20260509085830 9 315 0.0 0.0 0.00 0.00 0.00 79 1024.5
20260509084756 10 315 0.0 0.0 0.00 0.00 0.00 78 1024.2
20260509083753 10 292 0.0 0.0 0.00 0.00 0.00 77 1024.3
20260509082719 10 292 0.0 0.0 0.00 0.00 0.00 76 1024.0
20260509081647 11 247 0.0 0.0 0.00 0.00 0.00 75 1024.0
20260509080645 11 270 0.0 0.0 0.00 0.00 0.00 74 1023.7
20260509075611 11 292 0.0 0.0 0.00 0.00 0.00 74 1023.8
20260509074609 11 315 0.0 0.0 0.00 0.00 0.00 73 1023.8
20260509073607 11 315 0.0 0.0 0.00 0.00 0.00 72 1023.9
20260509072535 12 315 0.0 0.0 0.00 0.00 0.00 70 1023.7
20260509071532 12 292 0.0 0.0 0.00 0.00 0.00 70 1023.7
20260509070530 13 292 0.0 0.0 0.00 0.00 0.00 68 1023.5
20260509065529 13 247 0.0 0.0 0.00 0.00 0.00 67 1023.5
20260509064455 13 292 0.0 0.0 0.00 0.00 0.00 66 1023.6
20260509063452 13 292 0.0 0.0 0.00 0.00 0.00 65 1023.3
20260509062450 13 247 0.0 0.0 0.00 0.00 0.00 65 1023.3
20260509061416 14 292 0.0 0.0 0.00 0.00 0.00 64 1023.7
20260509060414 14 202 0.0 0.0 0.00 0.00 0.00 63 1023.4
20260509055413 14 180 0.0 0.0 0.00 0.00 0.00 63 1023.5
20260509054411 15 315 0.0 0.0 0.00 0.00 0.00 62 1023.5
20260509053409 15 202 0.0 0.0 0.00 0.00 0.00 62 1023.6
20260509052407 15 270 0.0 0.0 0.00 0.00 0.00 62 1023.6
20260509051406 15 337 0.0 0.0 0.00 0.00 0.00 61 1023.6
20260509050228 15 157 0.0 0.0 0.00 0.00 0.00 61 1023.3
20260509045226 15 247 0.0 0.0 0.00 0.00 0.00 62 1023.7
20260509044152 15 135 0.0 0.0 0.00 0.00 0.00 61 1023.7
20260509043149 15 112 0.0 0.0 0.00 0.00 0.00 60 1023.8
20260509042146 15 247 0.0 0.0 0.00 0.00 0.00 61 1023.8
20260509041144 15 202 0.0 0.0 0.00 0.00 0.00 62 1023.8
20260509040142 15 225 0.0 0.0 0.00 0.00 0.00 62 1023.9
20260509035139 15 337 0.0 0.0 0.00 0.00 0.00 63 1023.9
20260509034137 15 270 0.0 0.0 0.00 0.00 0.00 62 1023.9
20260509033104 15 315 0.0 0.0 0.00 0.00 0.00 62 1023.9
20260509032101 15 292 0.0 0.0 0.00 0.00 0.00 62 1024.2
20260509031059 14 180 0.0 0.0 0.00 0.00 0.00 65 1024.2
20260509030058 14 247 0.0 0.0 0.00 0.00 0.00 65 1024.2
20260509025056 14 225 0.0 0.0 0.00 0.00 0.00 66 1024.5
20260509024054 13 247 0.0 0.0 0.00 0.00 0.00 65 1024.5
20260509023051 13 337 0.0 0.0 0.00 0.00 0.00 67 1024.8
20260509022048 13 292 0.0 0.0 0.00 0.00 0.00 70 1024.7
20260509021046 12 225 0.0 0.0 0.00 0.00 0.00 71 1025.0
20260509020043 12 0 0.0 0.0 0.00 0.00 0.00 70 1025.0
20260509015041 12 112 0.0 0.0 0.00 0.00 0.00 71 1024.9
20260509014039 11 202 0.0 0.0 0.00 0.00 0.00 72 1024.9
20260509013004 11 247 0.0 0.0 0.00 0.00 0.00 74 1025.2
20260509012003 11 22 0.0 0.0 0.00 0.00 0.00 75 1025.1
20260509011001 10 112 0.0 0.0 0.00 0.00 0.00 77 1025.1
20260509005959 10 135 0.0 0.0 0.00 0.00 0.00 79 1025.0
20260509004957 8 180 0.0 0.0 0.00 0.00 0.00 81 1024.9
20260509003955 8 180 0.0 0.0 0.00 0.00 0.00 83 1025.2
20260509002953 8 202 0.0 0.0 0.00 0.00 0.00 83 1025.2
20260509001951 8 292 0.0 0.0 0.00 0.00 0.00 84 1025.2
20260509000950 8 180 0.0 0.0 0.00 0.00 0.00 84 1025.2
20260508235843 8 90 0.0 0.0 0.00 0.00 0.00 84 1025.2
20260508234841 7 90 0.0 0.0 0.00 0.00 0.00 83 1025.1
20260508233838 7 67 0.0 0.0 0.00 0.00 0.00 83 1025.1
20260508232805 7 90 0.0 0.0 0.00 0.00 0.00 82 1025.0
20260508231803 7 90 0.0 0.0 0.00 0.00 0.00 82 1025.0
20260508230730 6 112 0.0 0.0 0.00 0.00 0.00 82 1024.9
20260508225656 6 67 0.0 0.0 0.00 0.00 0.00 82 1024.9
20260508224622 6 67 0.0 0.0 0.00 0.00 0.00 82 1024.5
20260508223621 5 67 0.0 0.0 0.00 0.00 0.00 82 1024.4
20260508222619 5 67 0.0 0.0 0.00 0.00 0.00 82 1024.3
20260508221545 5 67 0.0 0.0 0.00 0.00 0.00 83 1024.3
20260508220511 4 67 0.0 0.0 0.00 0.00 0.00 83 1024.2
20260508215509 3 45 0.0 0.0 0.00 0.00 0.00 83 1023.7
20260508214507 3 45 0.0 0.0 0.00 0.00 0.00 84 1023.7
20260508213505 2 67 0.0 0.0 0.00 0.00 0.00 84 1023.6
20260508212503 2 67 0.0 0.0 0.00 0.00 0.00 85 1023.6
20260508211501 2 337 0.0 0.0 0.00 0.00 0.00 85 1023.2
20260508210356 2 315 0.0 0.0 0.00 0.00 0.00 85 1023.2
20260508205354 2 315 0.0 0.0 0.00 0.00 0.00 85 1022.9
20260508204320 2 315 0.0 0.0 0.00 0.00 0.00 84 1022.6
20260508203318 2 315 0.0 0.0 0.00 0.00 0.00 84 1022.6
20260508202316 2 315 0.0 0.0 0.00 0.00 0.00 84 1022.3
20260508201314 2 315 0.0 0.0 0.00 0.00 0.00 84 1022.3
20260508200312 2 315 0.0 0.0 0.00 0.00 0.00 84 1022.3
20260508195310 3 315 0.0 0.0 0.00 0.00 0.00 84 1022.0
20260508194238 3 315 0.0 0.0 0.00 0.00 0.00 84 1022.0
20260508193236 3 315 0.0 0.0 0.00 0.00 0.00 84 1022.1
20260508192234 3 315 0.0 0.0 0.00 0.00 0.00 84 1022.2
20260508191231 3 315 0.0 0.0 0.00 0.00 0.00 84 1022.2
20260508190228 3 315 0.0 0.0 0.00 0.00 0.00 84 1021.9
20260508185226 3 315 0.0 0.0 0.00 0.00 0.00 84 1022.0
20260508184224 4 315 0.0 0.0 0.00 0.00 0.00 84 1022.0
20260508183222 4 315 0.0 0.0 0.00 0.00 0.00 84 1022.1
20260508182220 4 315 0.0 0.0 0.00 0.00 0.00 84 1022.1
20260508181218 5 315 0.0 0.0 0.00 0.00 0.00 84 1022.2
20260508180217 5 315 0.0 0.0 0.00 0.00 0.00 84 1021.9
20260508175215 5 315 0.0 0.0 0.00 0.00 0.00 84 1022.3
20260508174212 5 315 0.0 0.0 0.00 0.00 0.00 84 1022.3
20260508173107 5 22 0.0 0.0 0.00 0.00 0.00 84 1022.0
20260508172106 5 22 0.0 0.0 0.00 0.00 0.00 84 1022.4
20260508171103 5 135 0.0 0.0 0.00 0.00 0.00 84 1022.1
20260508170101 5 112 0.0 0.0 0.00 0.00 0.00 84 1022.2
20260508165027 5 0 0.0 0.0 0.00 0.00 0.00 84 1022.5
20260508164026 6 0 0.0 0.0 0.00 0.00 0.00 84 1022.2
20260508163024 6 0 0.0 0.0 0.00 0.00 0.00 84 1022.6
20260508162023 6 45 0.0 0.0 0.00 0.00 0.00 84 1022.3
20260508161022 6 45 0.0 0.0 0.00 0.00 0.00 84 1022.3
20260508160020 7 45 0.0 0.0 0.00 0.00 0.00 83 1022.3
20260508155018 7 45 0.0 0.0 0.00 0.00 0.00 84 1022.4
20260508154017 7 45 0.0 0.0 0.00 0.00 0.00 83 1022.1
20260508153015 7 45 0.0 0.0 0.00 0.00 0.00 83 1022.1
20260508152013 8 45 0.0 0.0 0.00 0.00 0.00 83 1022.1
20260508151011 8 45 0.0 0.0 0.00 0.00 0.00 83 1022.1
20260508150008 8 45 0.0 0.0 0.00 0.00 0.00 83 1022.0
20260508145007 8 45 0.0 0.0 0.00 0.00 0.00 82 1022.0
20260508144005 8 292 0.0 0.0 0.00 0.00 0.00 82 1022.0
20260508142901 8 270 0.0 0.0 0.00 0.00 0.00 82 1022.0
20260508141827 8 292 0.0 0.0 0.00 0.00 0.00 82 1021.7
20260508140824 8 292 0.0 0.0 0.00 0.00 0.00 82 1022.0
20260508135719 8 292 0.0 0.0 0.00 0.00 0.00 82 1022.0
20260508134646 8 292 0.0 0.0 0.00 0.00 0.00 82 1022.0
20260508133644 8 315 0.0 0.0 0.00 0.00 0.00 82 1022.0
20260508132611 8 270 0.0 0.0 0.00 0.00 0.00 82 1021.9
20260508131609 8 315 0.0 0.0 0.00 0.00 0.00 82 1021.9
20260508130607 8 292 0.0 0.0 0.00 0.00 0.00 82 1021.9
20260508125606 8 270 0.0 0.0 0.00 0.00 0.00 82 1021.9
20260508124604 8 315 0.0 0.0 0.00 0.00 0.00 82 1021.8
20260508123602 8 292 0.0 0.0 0.00 0.00 0.00 81 1021.7
20260508122600 8 270 0.0 0.0 0.00 0.00 0.00 81 1021.6
20260508121558 8 292 0.0 0.0 0.00 0.00 0.00 80 1021.7
20260508120556 9 292 0.0 0.0 0.00 0.00 0.00 80 1021.7
20260508115523 9 292 0.0 0.0 0.00 0.00 0.00 80 1021.7
20260508114521 9 225 0.0 0.0 0.00 0.00 0.00 79 1021.7
20260508113520 9 292 0.0 0.0 0.00 0.00 0.00 79 1021.6